Sidney, NE

1:52 PM MDT on May 29, 2017 (GMT -0600)
Sidney Municipal

Weather History for KSNY - April, 2013

Change the Weather History Date:

Wednesday, April 10, 2013

  Actual Average Record
Temperature  
Mean Temperature 14 °F 45 °F  
Max Temperature 23 °F 60 °F 82 °F (1977)
Min Temperature 5 °F 31 °F 3 °F (1973)
Degree Days  
Heating Degree Days 51 20  
Month to date heating degree days 241 210  
Since 1 July heating degree days 5848 5595  
Cooling Degree Days 0 0  
Month to date cooling degree days 0 0  
Year to date cooling degree days 0 0  
Moisture  
Dew Point 11 °F    
Average Humidity 80    
Maximum Humidity 92    
Minimum Humidity 68    
Precipitation  
Precipitation T in 0.06 in 1.62 in (1978)
Month to date precipitation 0.70 0.54  
Year to date precipitation 1.65 2.16  
Sea Level Pressure  
Sea Level Pressure 30.14 in    
Wind  
Wind Speed 16 mph (NNW)    
Max Wind Speed 30 mph    
Max Gust Speed 35 mph    
Visibility 6 miles    
Events Snow    
T = Trace of Precipitation, MM = Missing Value Source: NWS Daily Summary

Daily Weather History Graph

Daily Weather History Graph

Search for Another Location

Airport or City:

Trip Planner

Search our weather history database for the weather conditions in past years. The results will help you decide how hot, cold, wet, or windy it might be!

Date:

Astronomy

Apr. 10, 2013 Rise Set
Actual Time 6:20 AM MDT 7:26 PM MDT
Civil Twilight 5:51 AM MDT 7:55 PM MDT
Nautical Twilight 5:18 AM MDT 8:29 PM MDT
Astronomical Twilight 4:42 AM MDT 9:04 PM MDT
Moon 6:17 AM MDT (4/10) 8:05 PM MDT (4/10)
Length of Visible Light 14h 03m
Length of Day
13h 06m
New Moon, 0% of the Moon is Illuminated
Apr 10
New Moon
Apr 18
First Quarter
Apr 25
Full
May 2
Last Quarter
May 9
New

Hourly Weather History & Observations

Time (MDT) Temp. Windchill Dew Point Humidity Pressure Visibility Wind Dir Wind Speed Gust Speed Precip Events Conditions
12:01 AM 10.4 °F -6.0 °F 6.8 °F 85% 30.16 in 3.0 mi NNW 15.0 mph - N/A   Overcast
12:53 AM 10.9 °F -5.4 °F 7.0 °F 84% 30.36 in 7.0 mi NNW 15.0 mph - N/A   Overcast
1:20 AM 10.4 °F -7.7 °F 6.8 °F 85% 30.13 in 2.5 mi NNW 18.4 mph - N/A   Overcast
1:53 AM 10.9 °F -6.5 °F 8.1 °F 88% 30.33 in 2.5 mi NNW 17.3 mph - N/A   Overcast
2:02 AM 10.4 °F -7.2 °F 6.8 °F 85% 30.11 in 4.0 mi NNW 17.3 mph - N/A   Overcast
2:50 AM 10.4 °F -7.2 °F 6.8 °F 85% 30.10 in 10.0 mi NNW 17.3 mph - N/A   Scattered Clouds
2:53 AM 10.0 °F -7.6 °F 6.1 °F 84% 30.30 in 10.0 mi NNW 17.3 mph - N/A   Scattered Clouds
3:53 AM 9.0 °F -8.5 °F 5.0 °F 84% 30.30 in 9.0 mi NW 16.1 mph - 0.00 in Snow Light Snow
4:53 AM 8.1 °F -9.0 °F 5.0 °F 87% 30.30 in 10.0 mi NW 15.0 mph - 0.00 in   Clear
5:53 AM 6.1 °F -11.6 °F 1.9 °F 83% 30.30 in 10.0 mi NW 15.0 mph - N/A   Clear
6:53 AM 6.1 °F -10.9 °F 1.9 °F 83% 30.32 in 10.0 mi NW 13.8 mph - N/A   Clear
7:53 AM 9.0 °F -9.0 °F 3.9 °F 80% 30.32 in 10.0 mi NW 17.3 mph - N/A   Clear
8:53 AM 14.0 °F -3.4 °F 8.1 °F 77% 30.29 in 10.0 mi NNW 19.6 mph - N/A   Partly Cloudy
9:07 AM 15.8 °F -3.1 °F 8.6 °F 73% 30.08 in 5.0 mi NNW 25.3 mph - 0.00 in   Mostly Cloudy
9:36 AM 17.6 °F 0.5 °F 10.4 °F 73% 30.09 in 5.0 mi NNW 21.9 mph - 0.00 in   Overcast
9:53 AM 17.1 °F -0.3 °F 10.9 °F 77% 30.28 in 2.5 mi NNW 21.9 mph - 0.00 in Snow Light Snow
10:03 AM 17.6 °F 0.5 °F 10.4 °F 73% 30.09 in 3.0 mi NNW 21.9 mph - 0.00 in Snow Light Snow
10:24 AM 19.4 °F 2.5 °F 10.4 °F 68% 30.08 in 10.0 mi NNW 23.0 mph 28.8 mph 0.00 in   Mostly Cloudy
10:34 AM 19.4 °F 2.5 °F 10.4 °F 68% 30.08 in 10.0 mi NW 23.0 mph - 0.00 in   Scattered Clouds
11:41 AM 19.4 °F 1.1 °F 12.2 °F 74% 30.08 in 5.0 mi NNW 27.6 mph - 0.00 in Snow Blowing Snow
11:53 AM 19.9 °F 2.5 °F 12.9 °F 74% 30.25 in 3.0 mi NNW 25.3 mph - 0.00 in Snow Light Snow
12:53 PM 21.0 °F 5.0 °F 14.0 °F 74% 30.24 in 2.5 mi NNW 21.9 mph - 0.00 in Snow Light Snow
1:06 PM 19.4 °F 1.4 °F 14.0 °F 80% 30.05 in 1.2 mi NNW 26.5 mph - 0.00 in Snow Light Snow
1:25 PM 21.2 °F 4.2 °F 14.0 °F 74% 30.04 in 3.0 mi NNW 25.3 mph - 0.00 in Snow Light Snow
1:33 PM 21.2 °F 3.9 °F 14.0 °F 74% 30.03 in 2.0 mi North 26.5 mph - 0.00 in Snow Light Snow
1:40 PM 21.2 °F 4.9 °F 15.8 °F 80% 30.03 in 1.5 mi North 23.0 mph - 0.00 in Snow Light Snow
1:53 PM 21.9 °F 4.5 °F 15.1 °F 75% 30.20 in 2.0 mi North 27.6 mph 33.4 mph 0.00 in Snow Light Snow
2:05 PM 21.2 °F 3.9 °F 15.8 °F 80% 30.03 in 1.0 mi North 26.5 mph 33.4 mph 0.00 in Snow Light Snow
2:16 PM 21.2 °F 4.2 °F 14.0 °F 74% 30.03 in 2.0 mi North 25.3 mph 32.2 mph 0.00 in Snow Light Snow
2:24 PM 21.2 °F 4.2 °F 14.0 °F 74% 30.03 in 2.5 mi North 25.3 mph - 0.00 in Snow Light Snow
2:40 PM 21.2 °F 4.9 °F 14.0 °F 74% 30.03 in 5.0 mi North 23.0 mph - 0.00 in   Overcast
2:53 PM 21.9 °F 6.2 °F 15.1 °F 75% 30.20 in 4.0 mi North 21.9 mph 27.6 mph 0.00 in Snow Light Snow
3:18 PM 21.2 °F 4.2 °F 14.0 °F 74% 30.01 in 4.0 mi North 25.3 mph - 0.00 in Snow Light Snow
3:29 PM 21.2 °F 4.9 °F 12.2 °F 68% 30.01 in 7.0 mi North 23.0 mph 29.9 mph 0.00 in Snow Light Snow
3:53 PM 21.9 °F 5.8 °F 12.9 °F 68% 30.17 in 7.0 mi North 23.0 mph 32.2 mph 0.00 in   Overcast
4:48 PM 23.0 °F 8.0 °F 15.8 °F 74% 29.98 in 10.0 mi NNW 20.7 mph - 0.00 in   Mostly Cloudy
4:53 PM 23.0 °F 7.2 °F 14.0 °F 68% 30.15 in 10.0 mi North 23.0 mph - 0.00 in   Mostly Cloudy
5:53 PM 21.9 °F 9.2 °F 15.1 °F 75% 30.16 in 10.0 mi NNW 13.8 mph - N/A   Mostly Cloudy
6:11 PM 21.2 °F 8.9 °F 15.8 °F 80% 29.96 in 10.0 mi NNW 12.7 mph - N/A   Mostly Cloudy
6:53 PM 21.0 °F 9.3 °F 15.1 °F 78% 30.14 in 8.0 mi NNW 11.5 mph - N/A   Overcast
7:38 PM 19.4 °F 7.9 °F 15.8 °F 86% 29.95 in 9.0 mi NNW 10.4 mph - 0.00 in   Overcast
7:53 PM 19.9 °F 8.6 °F 16.0 °F 85% 30.14 in 10.0 mi NNW 10.4 mph - 0.00 in   Overcast
8:53 PM 19.0 °F 9.0 °F 14.0 °F 81% 30.11 in 10.0 mi NNW 8.1 mph - N/A   Overcast
9:53 PM 19.9 °F 11.1 °F 14.0 °F 78% 30.09 in 10.0 mi NW 6.9 mph - N/A   Overcast
10:53 PM 19.9 °F 10.1 °F 14.0 °F 78% 30.07 in 10.0 mi WNW 8.1 mph - N/A   Overcast
11:53 PM 15.1 °F 5.2 °F 10.9 °F 84% 30.05 in 10.0 mi West 6.9 mph - N/A   Overcast